GEFSSGP_con_cape1000_072.txt.gz
Probability
48 23 32 45 84 87 35 3 3 6 3 3 10 35 65 77 94 74 71 97 97 100 100 100 100 100 100 100 100 100 100 100 100 100 100 100 100 100 100 100 97 94 90 97 87 90 94 97 97
16 32 42 48 90 48 6 3 3 6 3 3 10 32 61 58 74 71 71 97 100 97 100 100 100 100 100 100 100 100 100 100 100 100 100 100 100 100 100 100 97 97 97 94 94 90 94 87 94
26 32 39 74 77 26 0 3 3 10 3 6 16 52 68 68 74 77 77 90 97 100 100 100 100 100 100 100 100 100 100 100 100 100 100 100 100 100 100 100 100 97 97 94 97 90 94 90 97
29 35 39 35 16 0 3 3 3 6 0 3 35 71 77 81 77 77 71 97 100 100 100 100 100 100 100 100 100 100 100 100 100 100 100 100 100 100 100 100 97 97 97 97 97 97 87 94 84
23 26 23 23 0 0 0 3 3 13 6 13 52 81 74 77 71 65 74 97 100 100 100 100 100 100 100 100 100 100 100 100 100 100 100 100 100 100 100 100 100 97 97 97 97 97 94 97 90
13 10 6 0 0 3 0 0 10 23 13 26 71 87 81 77 61 61 71 87 97 100 100 100 100 100 100 100 100 100 100 100 100 100 100 100 100 100 100 100 100 100 100 100 97 97 87 90 94
13 6 6 0 0 0 3 0 6 23 16 23 65 81 90 77 68 71 77 84 97 100 100 100 100 100 100 100 100 97 97 97 100 100 100 100 100 100 100 100 100 100 100 100 97 100 97 97 97
0 0 0 0 0 0 3 0 10 26 32 39 58 74 87 81 74 74 77 81 94 100 100 100 100 100 97 97 97 97 97 97 97 100 100 100 100 100 100 100 100 100 97 94 94 94 94 97 97
0 0 0 0 0 6 6 6 19 26 48 61 68 84 94 94 81 81 84 87 100 100 100 100 97 94 94 94 94 94 97 97 97 97 97 100 100 97 97 97 94 90 94 94 94 94 94 94 94
0 0 0 0 3 6 6 6 16 23 71 77 84 94 94 97 100 94 94 94 97 97 94 90 94 94 94 94 94 94 94 94 97 94 94 97 100 90 84 90 90 90 94 97 94 94 90 87 90
0 0 0 0 3 6 6 10 13 26 45 58 77 84 100 97 100 97 97 100 97 94 94 94 94 94 94 94 90 90 90 90 90 87 87 90 87 87 84 90 87 90 90 87 87 87 81 81 84
0 0 0 0 0 3 6 6 32 42 35 48 68 74 90 90 90 97 97 94 97 94 90 90 94 94 94 94 94 90 84 87 84 90 81 84 84 84 77 74 71 74 77 84 68 77 77 65 77
0 0 0 0 0 3 10 13 39 42 45 52 58 74 90 87 87 94 97 94 94 94 94 94 94 94 94 94 94 87 84 77 74 77 74 68 74 61 52 68 65 61 61 58 61 58 48 48 52
0 0 0 0 3 3 6 19 35 48 45 61 68 90 90 90 94 97 94 94 94 94 94 94 94 94 94 90 87 84 74 74 71 71 61 48 48 52 48 55 55 58 55 48 48 39 35 29 39
0 0 0 0 3 10 6 19 39 55 55 65 87 87 84 84 94 94 90 90 90 94 90 94 90 90 90 87 81 68 65 55 52 55 39 32 32 32 32 32 35 39 45 45 42 35 35 35 32
0 0 0 0 3 3 6 10 26 39 68 71 84 97 97 94 94 97 90 90 90 94 94 90 84 81 84 84 77 65 45 52 48 42 26 23 19 19 23 23 26 23 19 23 26 29 23 35 39
0 0 0 0 0 3 0 6 19 32 39 74 87 90 94 94 94 94 90 90 94 97 94 90 87 84 74 65 58 65 65 58 32 29 23 16 6 6 6 6 6 6 6 10 6 10 10 10 16
0 0 0 0 0 0 0 6 16 29 39 71 90 90 90 94 90 90 90 90 90 97 97 90 87 77 65 71 71 61 39 32 26 26 23 10 0 0 0 3 3 3 6 3 6 3 6 0 6
0 0 0 0 0 0 0 10 23 29 35 61 87 87 84 81 81 81 81 77 74 90 94 90 87 77 77 71 71 81 61 42 32 26 13 3 0 0 0 0 0 0 0 0 0 0 0 0 3
0 0 0 0 0 0 3 3 10 26 42 58 71 74 71 74 71 71 84 74 65 97 100 94 84 81 77 81 77 81 68 45 42 26 19 3 6 0 0 3 0 0 0 0 0 0 0 0 0
0 0 0 0 0 0 0 3 16 29 32 48 52 58 61 58 61 65 58 61 58 84 90 61 84 81 81 74 65 58 58 58 52 35 23 16 10 0 0 0 0 0 0 0 0 0 0 0 0
0 0 0 0 0 0 0 0 10 16 32 39 45 48 55 52 52 55 48 55 65 74 71 94 90 87 87 65 58 58 55 39 39 32 19 16 10 0 0 0 0 0 0 0 0 0 0 0 0
0 0 0 0 0 0 0 0 16 13 23 32 45 42 48 48 52 48 48 68 52 55 65 87 94 87 74 61 61 52 48 32 29 26 16 13 6 6 3 0 0 0 0 0 0 0 0 0 0
0 0 0 0 0 0 0 0 10 10 13 29 35 32 39 45 42 48 45 71 65 55 61 65 87 87 77 68 61 48 42 32 23 19 10 10 10 6 3 0 0 0 0 0 0 0 0 0 0
0 0 3 0 0 0 0 0 6 6 6 13 32 32 35 29 29 35 55 52 65 61 55 61 81 84 77 55 45 39 32 26 19 13 10 3 0 3 0 0 0 0 0 0 0 0 0 0 0
0 0 0 0 0 0 0 0 3 0 3 0 16 32 32 29 32 55 58 61 61 55 68 65 74 71 58 42 35 26 19 6 3 3 0 0 0 0 0 0 0 0 0 0 0 0 0 0 0
0 0 0 0 0 0 0 0 0 0 0 3 6 16 29 29 26 35 39 42 55 48 55 55 68 58 39 29 23 16 10 0 0 3 0 0 0 0 0 0 0 0 0 0 0 0 0 0 0
0 0 0 0 3 0 0 0 3 0 0 0 3 10 16 19 16 16 23 23 39 42 55 48 42 32 26 19 16 6 3 0 0 0 0 0 0 0 0 0 0 0 0 0 0 0 0 0 0
0 0 0 0 0 0 0 0 0 6 0 0 0 3 6 3 3 3 13 23 29 19 23 26 26 26 19 13 13 6 3 0 0 0 0 0 0 0 0 0 0 0 0 0 0 0 0 0 0
0 0 0 0 10 3 0 0 0 0 0 0 0 0 3 3 3 3 16 16 16 13 13 19 19 16 13 13 6 6 0 0 0 0 0 0 0 0 0 0 0 0 0 0 0 0 0 0 0

GEFSSGP_con_cape1000_078.txt.gz
Probability
74 61 23 10 23 16 3 3 3 0 0 16 35 52 48 48 45 58 48 87 97 100 100 100 100 100 100 100 100 100 100 100 100 100 100 100 100 100 100 100 100 100 97 100 97 97 97 100 100
35 13 6 10 16 3 3 0 0 0 10 19 29 48 58 87 94 94 94 94 97 100 100 100 100 100 100 100 100 100 100 100 100 100 100 100 100 100 100 100 100 100 100 97 97 90 94 94 94
10 6 13 13 10 10 3 0 0 6 13 32 32 39 65 94 100 94 90 97 97 100 100 100 100 100 100 100 100 100 100 100 100 100 100 100 100 100 100 100 100 97 97 100 97 90 90 94 90
6 10 10 13 6 6 3 0 3 13 26 29 39 48 74 94 97 90 90 97 97 100 100 100 100 100 100 100 100 100 100 100 100 100 100 100 100 100 100 100 100 94 94 94 97 87 90 84 84
3 10 13 13 6 3 6 6 6 13 26 26 39 45 68 90 84 87 94 97 100 100 100 100 100 100 100 100 100 100 100 100 100 100 100 100 100 97 100 100 100 100 94 94 94 90 87 87 84
0 3 3 3 0 0 3 6 10 23 32 26 32 39 65 84 87 90 94 94 100 100 100 100 100 100 100 100 100 100 100 100 100 100 100 100 100 100 100 100 100 100 97 97 100 94 90 81 87
0 0 0 0 0 0 0 6 13 32 39 32 29 39 55 74 74 84 90 90 100 100 100 100 100 97 97 97 97 97 97 97 100 100 100 100 100 100 100 100 100 100 100 97 90 90 94 97 94
0 0 0 0 0 0 3 13 19 32 29 35 32 39 39 65 71 81 87 84 100 100 97 97 97 97 97 97 97 97 97 97 97 97 97 97 97 100 100 100 100 97 97 94 94 90 90 94 94
0 0 0 0 3 0 0 19 26 32 42 42 32 39 42 48 68 81 87 90 87 90 94 94 94 94 94 94 94 97 97 97 94 94 97 97 94 94 94 97 94 90 90 94 94 97 97 97 94
0 0 0 0 3 0 3 6 19 26 39 42 42 45 42 48 65 77 87 90 90 90 94 94 94 94 94 94 94 94 94 90 87 81 87 87 81 77 81 87 87 84 84 84 87 94 94 90 81
0 0 0 0 0 6 19 23 10 23 29 32 32 35 39 39 55 77 77 87 90 94 94 94 94 94 90 90 87 84 87 81 74 71 71 65 55 52 52 52 52 58 61 58 65 65 55 55 52
0 0 0 0 3 0 19 16 13 16 26 32 19 26 39 45 52 61 74 87 90 90 94 94 90 87 84 87 87 77 74 68 58 61 48 39 32 29 29 32 32 29 26 35 32 32 39 32 32
0 0 0 0 3 3 13 13 13 16 23 19 26 35 39 39 48 61 71 84 87 90 94 87 81 81 74 71 71 65 65 58 48 39 35 23 19 19 16 13 13 16 13 13 16 19 26 16 16
0 0 0 0 3 6 6 13 10 16 23 23 23 32 32 42 42 52 71 71 74 77 87 84 77 71 68 61 61 45 48 35 32 26 13 13 13 10 6 10 6 3 6 3 3 0 6 6 6
0 0 0 0 0 3 6 10 13 13 16 19 29 35 39 48 45 48 58 65 68 77 81 71 71 58 58 48 39 32 26 23 19 13 16 13 13 13 6 3 3 3 3 0 0 0 0 0 0
0 0 0 0 0 3 6 3 6 16 16 23 29 39 42 48 55 58 68 61 65 65 71 71 68 52 39 32 29 26 23 16 10 13 13 10 6 0 0 3 3 0 0 0 0 0 0 0 0
0 0 0 0 0 0 3 6 3 13 16 23 26 29 39 48 55 61 71 68 71 61 58 55 52 35 35 29 23 16 16 13 13 6 6 6 3 0 0 0 0 0 0 0 0 0 0 0 0
0 0 0 0 0 0 0 3 3 10 13 16 26 29 42 48 55 58 68 71 58 45 45 48 45 32 32 23 13 13 10 6 3 3 3 0 0 0 0 0 0 0 0 0 0 0 0 0 0
0 0 0 0 0 0 3 3 6 6 16 13 23 29 39 45 48 58 61 65 52 39 35 39 35 29 29 13 13 10 6 6 3 0 0 0 0 0 0 0 0 0 0 0 0 0 0 0 0
0 0 0 0 0 0 3 3 3 6 13 6 26 39 39 45 48 52 52 48 42 42 39 35 32 26 26 10 3 0 0 0 3 3 0 0 0 0 0 0 0 0 0 0 0 0 0 0 0
0 0 0 0 0 0 0 0 6 6 6 13 16 26 39 45 48 45 52 52 45 32 32 32 29 26 10 10 0 0 0 0 0 0 0 0 0 0 0 0 0 0 0 0 0 0 0 0 0
0 0 0 0 0 0 0 0 0 3 6 16 19 19 32 45 45 45 45 35 35 32 29 29 23 16 6 6 0 0 0 0 0 0 0 0 0 0 0 0 0 0 0 0 0 0 0 0 0
0 0 0 0 0 0 0 0 0 0 3 6 13 16 23 32 42 39 39 32 35 32 26 19 19 13 6 3 3 0 0 0 0 0 0 0 0 0 0 0 0 0 0 0 0 0 0 0 0
0 0 0 0 0 0 0 0 0 0 0 3 13 23 26 32 29 35 32 26 19 23 23 16 19 13 10 6 3 0 0 0 0 0 0 0 0 0 0 0 0 0 0 0 0 0 0 0 0
0 0 0 0 0 0 0 0 0 0 0 6 6 26 32 29 26 23 19 19 19 19 23 16 16 13 13 10 13 3 3 3 3 3 0 0 0 0 0 0 0 0 0 0 0 0 0 0 0
0 0 0 0 0 0 0 0 0 0 0 10 13 16 23 23 23 23 16 13 16 16 16 19 13 16 13 13 10 6 3 3 0 0 0 0 0 0 0 0 0 0 0 0 0 0 0 0 0
0 0 0 0 0 0 0 0 0 0 6 10 13 13 16 23 23 19 13 10 10 13 16 16 13 13 13 10 6 6 3 0 0 0 0 0 0 0 0 0 0 0 0 0 0 0 0 0 0
0 0 0 0 0 0 0 0 0 0 0 3 13 10 16 23 23 13 13 10 10 6 10 13 10 6 13 10 6 6 0 0 0 0 0 0 0 0 0 0 0 0 0 0 0 0 0 0 0
0 0 0 0 0 0 0 0 0 0 0 0 6 6 16 13 10 10 13 10 6 10 13 6 3 10 13 13 10 6 3 0 0 0 0 0 0 0 0 0 0 0 0 0 0 0 0 0 0
0 0 0 0 0 0 0 0 0 0 0 0 0 3 6 6 10 10 6 6 6 13 10 6 10 10 10 10 10 3 3 0 0 0 0 0 0 0 0 0 0 0 0 0 0 0 0 0 0

GEFSSGP_con_cape1000_084.txt.gz
Probability
71 71 29 0 3 0 0 0 3 3 6 16 19 23 32 32 32 23 45 71 87 97 100 100 100 100 100 100 100 100 100 100 100 100 100 100 100 100 100 100 100 100 100 97 94 90 97 97 100
61 39 0 0 0 0 0 0 0 13 10 19 23 26 35 55 84 77 81 87 94 100 100 100 100 100 100 100 100 100 100 100 100 100 100 100 100 100 100 100 97 94 94 90 90 94 90 94 97
26 3 0 0 0 0 0 0 10 16 16 23 23 32 48 74 84 94 87 97 100 100 100 100 100 100 100 100 100 100 100 100 100 100 100 100 100 100 97 97 94 94 84 87 87 87 87 94 94
0 0 0 0 0 0 0 0 10 13 16 26 26 35 61 77 77 97 100 100 100 100 100 100 100 100 100 100 100 100 100 100 100 100 100 100 100 100 100 97 94 94 97 94 87 84 87 87 94
0 0 0 0 0 0 3 3 6 26 29 26 35 42 68 77 90 97 100 100 100 100 100 100 100 100 100 100 100 100 100 100 100 100 100 100 100 100 100 97 94 94 97 97 94 90 87 84 87
0 0 0 0 0 3 6 6 23 23 26 19 19 52 71 81 90 97 100 100 100 100 100 100 100 100 100 100 100 100 100 100 100 100 100 100 100 97 100 100 100 97 94 100 94 94 90 84 84
0 0 0 0 0 0 10 16 23 23 23 19 29 55 71 74 77 90 94 94 97 100 97 97 97 97 97 97 97 100 100 100 100 100 100 100 100 100 100 100 100 97 97 94 97 94 94 90 97
0 0 0 0 0 0 6 16 16 23 19 23 32 55 71 77 77 84 87 94 90 97 97 97 97 97 97 97 97 97 97 97 97 97 97 97 100 100 100 100 97 97 97 90 90 90 90 97 97
0 0 0 0 0 0 6 23 23 26 35 32 26 42 74 74 81 84 81 87 84 87 90 94 94 94 94 94 94 94 94 94 94 94 97 90 87 84 90 94 97 97 94 90 94 94 90 90 94
0 0 0 0 0 3 13 13 16 26 32 29 29 45 68 77 71 61 58 68 77 84 87 90 94 94 94 94 94 94 90 87 90 87 87 77 71 71 74 77 84 84 87 84 87 84 81 77 65
0 0 0 0 0 0 13 13 16 23 23 26 39 48 68 74 71 65 52 52 48 65 84 84 94 90 94 94 87 84 81 77 71 65 58 52 42 39 39 42 45 42 52 42 45 48 48 42 42
0 0 0 0 0 3 0 3 0 13 13 29 35 48 52 61 58 55 45 48 48 61 68 90 90 87 87 84 81 71 68 58 48 42 42 35 23 26 23 16 29 29 32 29 29 29 32 39 35
0 0 0 0 3 3 10 6 3 6 6 23 29 35 39 48 52 48 42 42 39 55 65 81 84 77 74 68 65 68 55 52 35 32 26 23 23 19 10 10 10 10 10 13 19 16 26 23 19
0 0 0 3 3 10 13 10 6 10 3 23 26 23 23 29 35 32 39 42 42 45 61 65 71 65 61 61 52 48 48 32 32 29 23 19 13 10 10 6 6 3 3 3 3 0 3 3 6
0 0 0 0 3 3 3 6 6 3 3 10 16 13 16 23 32 32 42 58 45 52 58 55 52 52 42 42 35 29 32 26 23 13 13 10 10 6 3 3 0 0 0 0 0 0 0 0 0
0 0 0 0 0 3 0 0 6 3 3 3 13 16 26 23 29 32 35 42 52 52 48 58 61 32 26 19 19 16 16 23 16 6 6 10 0 0 0 0 0 0 0 0 0 0 0 0 0
0 0 0 0 0 0 3 0 0 3 6 10 19 26 23 26 29 32 39 42 45 48 45 42 35 26 23 16 13 13 10 10 6 3 3 3 0 0 0 0 0 0 0 0 0 0 0 0 0
0 0 0 0 0 0 0 0 0 3 3 10 16 19 16 23 32 42 39 48 42 42 29 32 26 19 10 6 3 3 3 3 0 0 0 0 0 0 0 0 0 0 0 0 0 0 0 0 0
0 0 0 0 0 0 0 3 0 0 6 3 10 19 23 19 23 42 39 45 39 35 29 23 19 10 6 3 3 3 3 0 0 0 0 0 0 0 0 0 0 0 0 0 0 0 0 0 0
0 0 0 0 0 0 0 3 0 3 3 3 6 19 23 19 23 32 35 35 32 29 23 19 13 6 3 3 3 0 0 0 0 0 0 0 0 0 0 0 0 0 0 0 0 0 0 0 0
0 0 0 0 0 0 0 0 3 0 6 6 3 10 23 19 23 29 32 29 29 29 26 19 13 6 3 3 0 0 0 0 0 0 0 0 0 0 0 0 0 0 0 0 0 0 0 0 0
0 0 0 0 0 0 0 0 0 3 6 6 6 10 23 23 23 29 32 26 26 23 19 10 10 6 3 3 0 0 0 0 0 0 0 0 0 0 0 0 0 0 0 0 0 0 0 0 0
0 0 0 0 0 0 0 0 0 0 6 6 6 3 16 23 23 23 32 29 26 19 19 13 10 6 3 0 0 0 0 0 0 0 0 0 0 0 0 0 0 0 0 0 0 0 0 0 0
0 0 0 0 0 0 0 0 0 0 0 0 0 3 10 16 26 26 23 26 23 19 19 13 13 10 0 0 0 0 0 0 0 0 0 0 0 0 0 0 0 0 0 0 0 0 0 0 0
0 0 0 0 0 0 0 0 0 0 0 0 0 0 3 16 23 26 26 26 19 16 19 13 13 6 0 0 0 0 0 0 0 0 0 0 0 0 0 0 0 0 0 0 0 0 0 0 0
0 0 0 0 0 0 0 0 0 0 0 0 0 0 3 3 13 16 23 19 16 16 16 16 13 10 0 0 0 0 0 0 0 0 0 0 0 0 0 0 0 0 0 0 0 0 0 0 0
0 0 0 0 0 0 0 0 0 0 0 0 3 3 6 6 13 16 16 16 16 10 13 13 16 6 3 0 0 0 0 0 0 0 0 0 0 0 0 0 0 0 0 0 0 0 0 0 0
0 0 0 0 0 0 0 0 0 0 0 3 0 3 6 6 10 13 16 16 13 10 10 10 13 13 6 3 3 0 0 0 0 0 0 0 0 0 0 0 0 0 0 0 0 0 0 0 0
0 0 0 0 0 0 0 0 0 0 0 0 0 0 3 6 6 10 10 13 10 10 10 13 10 10 6 6 3 3 0 0 0 0 0 0 0 0 0 0 0 0 0 0 0 0 0 0 0
0 0 0 0 0 0 0 0 0 0 0 0 0 0 0 6 6 6 6 3 10 13 10 10 10 10 6 6 3 3 3 3 3 0 0 0 0 0 0 0 0 0 0 0 0 0 0 0 0

GEFSSGP_con_cape1000_090.txt.gz
Probability
58 48 55 58 58 10 0 0 0 3 13 23 10 13 16 26 23 61 81 32 45 68 94 100 100 100 100 100 100 100 100 100 100 100 100 100 100 100 97 97 94 97 94 90 87 94 94 100 100
32 39 42 48 10 0 0 0 0 10 23 26 19 26 32 35 65 87 84 55 48 81 90 94 100 100 100 100 100 100 100 100 100 100 100 100 100 100 100 97 97 90 87 87 87 87 90 97 97
29 32 35 3 0 0 0 3 6 23 19 29 29 39 52 71 77 87 87 74 68 94 100 100 100 100 100 100 100 100 100 100 100 100 100 100 100 97 97 97 94 87 84 77 81 81 84 90 94
16 19 13 0 0 0 3 6 6 16 19 23 29 48 65 81 87 90 87 74 84 100 100 100 100 100 100 100 100 100 100 100 100 100 100 100 100 97 97 94 90 87 81 84 81 77 81 90 94
13 10 0 0 0 0 6 6 10 16 29 35 35 55 81 90 90 94 97 87 97 97 97 100 100 100 100 100 100 100 100 100 100 100 100 100 100 100 100 94 94 94 90 84 84 84 81 81 84
3 0 0 0 0 0 3 6 10 32 42 45 45 58 90 94 94 100 97 90 87 94 94 100 100 100 100 100 100 100 100 100 100 100 100 100 100 97 97 97 97 94 94 90 94 90 87 87 87
0 0 0 0 0 0 6 10 23 29 42 55 58 61 90 100 97 100 100 94 94 87 94 100 94 100 100 100 100 100 100 100 100 100 100 100 100 100 100 94 90 90 90 94 90 94 90 97 94
0 0 0 0 0 0 0 19 26 26 48 61 65 68 90 100 100 100 100 97 90 94 94 100 100 100 100 100 100 100 100 100 100 100 100 100 100 100 97 97 97 97 97 90 90 90 87 90 94
0 0 0 0 0 0 0 16 26 52 58 74 68 77 94 100 100 100 100 94 97 90 94 94 97 97 97 97 97 100 94 94 97 97 94 97 100 94 94 94 90 94 94 87 90 87 90 87 81
0 0 0 0 0 0 3 3 19 42 58 68 74 74 97 100 100 100 97 94 90 90 90 94 94 94 94 97 94 94 94 94 94 94 94 90 97 90 84 84 81 81 81 81 81 77 81 71 74
0 0 0 0 0 0 3 10 23 16 29 61 68 81 90 97 94 94 94 84 87 87 84 94 94 97 94 94 94 94 94 94 94 94 90 90 81 71 71 71 81 77 55 65 71 68 58 55 71
0 0 0 0 0 0 3 10 16 19 26 48 71 77 84 97 90 94 94 87 87 81 84 90 94 94 94 90 90 94 94 90 90 87 84 71 71 71 61 61 58 55 58 55 55 52 39 45 52
0 0 0 0 0 0 3 6 10 16 29 48 61 74 84 87 90 87 81 84 84 81 90 94 94 94 94 94 94 90 90 90 81 74 65 68 61 48 42 48 45 26 26 29 35 39 42 42 42
0 0 0 0 0 0 3 3 10 13 35 48 68 68 65 77 87 71 74 81 84 84 87 87 94 94 94 94 90 90 87 74 65 65 55 52 42 39 35 29 26 26 23 23 26 26 29 29 35
0 0 0 0 0 0 3 0 0 13 32 39 58 65 68 71 71 65 74 84 81 84 84 84 84 94 90 90 87 81 71 58 58 52 42 39 29 35 29 26 26 23 23 26 26 23 26 32 10
0 0 0 0 0 3 0 0 3 16 23 39 42 48 61 68 61 65 68 74 77 87 84 81 77 81 84 84 77 65 58 48 35 35 39 29 29 26 23 13 10 13 10 10 16 10 3 3 3
0 0 0 0 0 0 0 0 6 3 13 16 39 39 32 55 45 48 55 58 68 74 71 77 77 84 84 81 77 58 48 45 39 32 29 29 32 13 13 10 10 6 0 0 0 0 0 0 0
0 0 0 0 0 0 0 0 3 3 0 10 19 32 32 39 42 35 42 52 61 65 71 77 77 81 71 68 58 55 45 39 32 32 32 26 16 13 3 0 0 0 0 0 3 3 0 0 0
0 0 0 0 0 0 0 0 3 6 3 10 16 26 29 32 32 39 45 45 55 58 61 77 71 71 71 65 58 55 45 32 32 29 26 23 13 6 3 3 3 0 0 0 0 0 0 0 0
0 0 0 0 0 0 0 0 3 6 10 13 16 23 26 32 32 45 48 52 55 58 65 68 74 74 71 71 61 55 45 29 29 26 29 23 16 10 3 6 0 3 3 0 0 0 0 0 0
0 0 0 0 0 0 0 0 6 0 0 6 10 13 19 32 39 42 35 52 55 55 61 61 74 68 74 68 58 55 52 35 23 19 29 23 10 6 6 6 3 3 0 0 0 0 0 0 0
0 0 0 0 0 0 0 0 6 6 3 3 3 3 16 26 35 39 42 55 52 58 68 74 81 81 77 68 45 39 35 29 26 19 16 19 16 16 3 3 3 3 0 0 0 0 0 0 0
0 0 0 0 0 0 0 0 0 6 6 10 10 10 13 26 32 39 48 58 55 68 74 81 84 81 74 61 55 52 32 29 16 13 29 23 16 13 13 10 10 10 6 0 0 0 0 0 0
0 0 0 0 0 0 0 0 0 0 6 0 6 10 16 19 32 45 48 61 71 68 77 77 81 84 71 61 55 55 45 35 26 32 26 23 10 10 10 6 10 6 6 6 6 3 0 0 0
0 0 0 0 0 0 0 0 0 0 0 0 3 6 19 26 42 48 58 74 74 71 74 74 81 81 74 61 58 52 61 55 52 35 23 16 3 6 10 6 6 6 6 6 6 6 0 0 0
0 0 0 0 0 0 0 0 0 0 0 0 0 6 16 29 48 65 61 77 87 77 81 71 81 84 74 61 58 55 58 39 35 32 16 10 6 6 6 6 6 6 6 6 6 0 0 0 0
0 0 0 0 0 0 0 0 0 0 0 0 6 6 16 29 39 52 55 68 77 84 87 65 77 84 81 58 65 77 68 42 35 39 23 10 10 6 6 6 6 3 6 6 6 0 0 0 0
0 0 0 0 0 0 0 0 0 3 3 3 6 6 13 29 32 39 55 55 68 65 84 74 74 84 84 71 71 55 65 65 55 39 16 13 6 6 6 6 3 3 6 6 3 0 0 0 0
0 0 0 0 0 0 0 0 0 6 10 6 6 10 13 16 23 35 55 61 68 68 71 87 84 81 81 81 84 68 61 52 55 48 29 26 16 10 10 6 6 3 3 3 3 0 0 0 0
0 0 0 0 0 0 0 0 0 3 6 6 6 10 13 19 23 29 42 48 55 68 68 81 84 87 84 84 81 77 61 55 52 39 35 29 26 13 10 10 6 3 3 3 3 0 0 0 0

GEFSSGP_con_cape1000_096.txt.gz
Probability
61 45 68 84 84 74 19 0 0 0 0 0 0 6 23 42 61 58 45 58 90 87 94 100 100 100 100 100 100 100 100 100 100 100 100 100 100 100 97 97 97 100 100 94 94 97 100 100 97
23 55 58 58 65 23 0 0 0 3 3 3 6 10 35 68 71 52 58 81 90 90 97 100 100 100 100 100 100 100 100 100 100 100 100 100 100 100 100 97 94 97 94 87 84 90 94 97 97
19 32 26 29 29 0 0 0 0 3 3 0 10 23 58 77 68 71 65 90 97 97 100 100 100 100 100 100 100 100 100 100 100 100 100 100 100 100 100 97 94 90 87 84 87 90 87 87 94
29 26 16 3 0 0 0 0 0 0 3 3 10 52 74 71 77 77 74 94 97 97 100 100 100 100 100 100 100 100 100 100 100 100 100 100 100 97 94 94 90 90 87 87 84 87 84 87 94
19 13 6 0 0 0 0 0 0 3 3 10 13 71 90 81 81 77 84 97 100 100 94 97 100 100 100 100 100 100 100 100 100 100 100 100 97 94 100 100 97 90 84 81 74 74 77 81 84
3 3 0 0 0 0 0 0 0 6 10 10 19 74 94 90 87 87 87 100 97 94 94 97 100 100 100 100 100 100 100 100 100 100 100 97 97 94 94 97 97 90 87 81 84 81 81 77 74
0 0 0 0 0 0 0 0 0 6 16 16 19 65 97 100 90 94 90 100 100 100 97 97 97 100 100 100 100 100 100 100 100 100 100 97 97 94 90 90 90 87 81 84 81 84 81 84 84
0 0 0 0 0 0 0 0 0 10 19 26 23 74 90 97 97 90 90 94 100 100 97 100 100 100 100 100 100 100 100 100 100 100 97 100 97 97 90 94 94 87 81 74 71 74 74 77 84
0 0 0 0 0 0 0 0 0 6 23 26 55 81 87 90 90 87 87 90 94 100 100 97 100 100 100 97 100 100 100 100 100 100 97 100 100 94 97 94 90 87 84 77 81 81 77 81 84
0 0 0 0 0 0 0 0 3 6 19 26 58 74 87 94 97 90 90 90 97 97 100 100 100 100 100 97 100 100 97 97 97 97 97 97 97 90 84 90 84 81 74 71 81 84 84 84 81
0 0 0 0 0 0 0 0 0 0 19 35 65 87 87 97 97 97 97 97 97 100 100 94 97 97 97 97 94 94 94 94 94 94 94 97 94 81 77 84 84 87 71 74 74 84 84 71 84
0 0 0 0 0 0 0 0 0 3 32 48 61 81 90 87 90 94 87 94 97 100 94 94 97 97 97 94 94 94 94 94 94 94 90 90 81 81 84 84 71 74 74 71 71 77 68 65 68
0 0 0 0 0 0 0 0 0 19 39 52 58 68 81 77 84 87 90 87 87 90 94 97 97 94 94 94 94 94 94 87 87 84 74 71 74 68 65 68 65 55 58 58 71 55 48 48 48
0 0 0 0 0 0 0 0 3 19 26 45 58 61 68 74 84 77 84 77 81 84 84 87 94 94 94 94 94 94 90 87 81 74 61 58 58 61 65 55 52 48 42 39 45 32 39 48 48
0 0 0 0 0 0 0 0 0 16 23 35 45 55 68 68 77 77 74 77 77 81 74 87 90 94 94 94 94 90 90 74 61 61 52 45 45 45 45 45 45 39 32 32 35 26 29 32 32
0 0 0 0 0 0 0 3 13 23 19 32 35 42 68 77 74 74 71 77 68 68 74 81 84 94 94 90 90 87 74 65 61 52 39 32 35 32 39 35 35 26 23 29 35 23 29 26 23
0 0 0 0 0 0 0 3 19 16 19 29 32 52 65 65 68 61 71 68 68 71 74 77 84 87 87 90 90 77 74 71 55 45 42 32 26 23 29 32 26 19 19 23 13 13 23 19 13
0 0 0 0 0 0 0 3 23 13 16 26 35 52 55 55 58 58 68 68 71 74 74 77 81 87 90 94 84 81 74 65 45 48 45 29 26 19 19 19 19 16 16 16 13 6 6 6 13
0 0 0 0 0 0 0 3 13 16 13 23 32 48 55 58 55 61 58 58 65 71 74 74 81 84 90 77 77 71 61 52 52 48 42 26 23 19 23 16 13 10 16 13 6 3 0 3 0
0 0 0 0 0 0 0 0 10 16 16 23 35 55 58 61 48 52 55 58 58 71 71 71 74 74 77 77 81 74 68 52 55 52 42 39 29 26 10 16 10 10 13 10 6 3 3 0 0
0 0 0 0 0 0 0 6 10 23 10 10 29 42 48 52 52 52 55 52 55 61 65 61 71 71 71 71 65 58 68 55 58 55 48 39 29 26 19 16 13 13 13 13 13 10 6 0 0
0 0 0 0 0 0 0 0 13 26 19 6 29 35 39 42 58 55 55 45 45 45 52 65 74 74 81 74 71 55 48 55 52 58 55 48 32 23 23 16 10 10 10 16 10 6 3 3 0
0 0 0 0 0 0 0 0 6 29 23 23 26 32 29 32 52 48 52 48 48 48 58 65 68 77 77 71 77 74 55 61 58 65 65 48 42 26 19 16 13 13 13 13 13 16 3 6 3
0 0 0 0 0 0 0 0 6 10 16 13 23 35 35 35 35 48 52 48 55 55 61 65 74 77 81 81 81 77 65 65 71 68 65 58 48 32 23 13 13 10 10 10 10 13 6 10 6
0 0 0 0 10 0 0 0 3 3 3 3 16 26 26 39 35 45 58 55 68 61 58 68 71 77 90 87 84 81 77 74 71 74 74 48 39 32 35 13 16 13 13 10 10 13 10 6 6
0 0 3 0 0 0 0 0 0 0 0 0 10 13 26 32 45 48 71 74 65 68 71 77 81 87 90 87 87 81 81 71 71 77 68 52 48 23 23 23 19 19 13 6 10 10 6 6 6
0 0 0 0 0 0 0 0 0 0 0 0 6 13 23 23 42 61 68 71 68 68 77 81 87 87 90 87 90 87 84 77 77 81 71 48 48 23 23 19 19 13 13 10 10 10 10 6 6
0 0 0 0 10 0 0 0 0 0 0 0 10 13 29 35 45 58 68 65 68 68 81 90 87 90 90 90 84 71 84 81 74 74 71 58 42 26 23 19 19 16 16 13 16 6 6 10 6
0 0 0 3 6 3 0 0 0 3 0 0 3 19 32 39 61 65 71 71 77 84 77 87 81 87 87 87 90 90 77 81 77 74 71 65 55 39 32 23 29 16 16 10 13 6 6 6 6
0 0 0 13 26 6 3 3 3 0 0 0 3 16 29 32 42 61 74 81 84 84 84 90 90 84 87 90 94 94 90 84 77 71 74 65 61 42 35 35 32 26 16 23 16 6 6 3 3